Regional Weather Roundup
Issued by NWS Northern Indiana

Home | Current Version | Previous Version | Graphics & Text | Print | Product List | Glossary On
Versions: 1 2 3 4 5 6 7 8 9 10 11 12 13 14 15 16 17 18 19 20 21 22 23 24 25 26 27 28 29 30 31 32 33 34 35 36 37 38 39 40 41 42 43 44 45 46 47 48 49 50
000
ASUS43 KIWX 032000
RWRIWX

KIWX WEATHER ROUNDUP
NATIONAL WEATHER SERVICE NORTHERN INDIANA
400 PM EDT FRI JUL 03 2015

NOTE: "FAIR" INDICATES FEW OR NO CLOUDS BELOW 12,000 FEET WITH NO
SIGNIFICANT WEATHER AND/OR OBSTRUCTIONS TO VISIBILITY.

* THESE STATIONS ARE NOT UNDER NWS QUALITY CONTROL. THEY ALSO MAY NOT
  REPORT WEATHER SUCH AS PRECIPITATION OR FOG.

INZ001>027-032100-
NORTHERN INDIANA

CITY           SKY/WX    TMP DP  RH WIND       PRES   REMARKS
GARY*          PTSUNNY   73  59  60 NE9       29.96F
SOUTH BEND     MOSUNNY   76  56  49 NW7       29.95F
ELKHART*       MOSUNNY   75  54  46 NE5       29.95
GOSHEN         MOSUNNY   74  57  55 VRB3      29.94F
MONTICELLO*    CLOUDY    73  61  65 NE3       29.92F
ANGOLA*          N/A     75  54  46 CALM      29.94F
FORT WAYNE     CLOUDY    76  60  57 NE8       29.94F
PERU/GRISSOM   PTSUNNY   74  62  66 E7        29.91F

$$
INZ028>050-032100-
CENTRAL INDIANA

CITY           SKY/WX    TMP DP  RH WIND       PRES   REMARKS
LAFAYETTE      CLOUDY    74  62  66 VRB6      29.91F
KOKOMO*        CLOUDY    72  63  73 NE6       29.92S
MUNCIE*        MOSUNNY   76  62  62 E7        29.90F
INDIANAPOLIS   CLOUDY    73  62  68 NE8       29.88S

$$
MIZ043>046-050>051-056>058-064>065-071>073-077>080-032100-
SOUTHWEST LOWER MICHIGAN

CITY           SKY/WX    TMP DP  RH WIND       PRES   REMARKS
BATTLE CREEK   MOSUNNY   76  53  44 E5        29.96F
BENTON HARBOR  MOSUNNY   72  55  55 VRB5      29.95F
COLDWATER*     MOSUNNY   73  51  46 N3        29.95F
HILLSDALE*     PTSUNNY   73  53  49 N6        29.96F
HOLLAND        MOSUNNY   75  55  49 VRB7      29.96F
GRAND RAPIDS   PTSUNNY   73  48  41 S6        29.96F
KALAMAZOO      MOSUNNY   75  52  44 VRB3      29.95F
STURGIS*       MOSUNNY   72  55  56 N5        29.94F
THREE RIVERS*  FAIR      73  54  49 SE3       29.95F

$$
OHZ001>008-015>018-024>025-032100-
NORTHWEST OHIO

CITY           SKY/WX    TMP DP  RH WIND       PRES   REMARKS
DEFIANCE       CLOUDY    74  54  49 CALM      29.93F
FINDLAY        PTSUNNY   75  56  51 N10       29.92F
TOLEDO EXPRESS CLOUDY    74  57  55 NE9       29.94F
TOLEDO METCALF CLOUDY    70  52  52 NE7       29.96F
LIMA           PTSUNNY   75  61  61 VRB7      29.92F

$$
AND FOR LAKE MICHIGAN COASTAL AND OPEN LAKE BUOY OBSERVATIONS

STATION/POSITION TEMP    WIND        PRES    VSBY  WAVE
                 AIR SEA DIR/SP/G                  HT/PER
                 (F)     (DEG/KT/KT) (MB)    (MI)  (FT/S)
CALUMET HARBOR    68     360/  5/  7   N/A
MICHIGAN CITY     63      10/  7/  9   N/A
BURNS HARBOR      64      10/ 10/ 11 1015.2F
SAINT JOSEPH      63     360/  7/  9   N/A
4 MI NW BRIDGMAN  63 63                N/A           1/ 2
MICHIGAN CITY     63 64  360/ 10/ 12   N/A           1/ 4

$$
&&



USA.gov is the U.S. government's official web portal to all federal, state and local government web resources and services.